Simultaneous Nadir Overpasses (SNOs) Predictions

Prediction of SNOs between NOAA-19 and METOP-C Satellite Orbit:

Table of predicted SNOs for the next 14.0 days since TLE Epoch: 9/20/2019
Index Date (NOAA-19) Time (NOAA-19) Lat,Lon (NOAA-19) SZA (NOAA-19 ) Date (METOP-C) Time (METOP-C) Lat,Lon (METOP-C) SZA (METOP-C ) Distance(km) Time Diff (sec)
1 09/27/2019 12:20:20 79.57, 12.06 81.75 09/27/2019 12:21:33 79.53, 12.76 81.78 14.69 73
2 09/27/2019 13:11:17 -79.51, 179.91 98.26 09/27/2019 13:12:16 -79.51, 179.85 98.26 1.49 59
3 09/27/2019 14:02:18 79.50, -12.65 81.75 09/27/2019 14:02:55 79.52, -12.70 81.78 2.95 37
4 09/27/2019 14:53:18 -79.52, 154.34 98.23 09/27/2019 14:53:38 -79.49, 154.40 98.25 3.33 20
5 09/27/2019 15:44:19 79.50, -38.23 81.78 09/27/2019 15:44:17 79.51, -38.16 81.79 1.53 2
6 09/27/2019 16:35:18 -79.50, 129.06 98.21 09/27/2019 16:35:00 -79.48, 128.94 98.24 3.29 18
7 09/27/2019 17:26:19 79.48, -63.52 81.80 09/27/2019 17:25:39 79.49, -63.61 81.80 2.24 40
8 09/27/2019 18:17:18 -79.48, 103.77 98.19 09/27/2019 18:16:21 -79.50, 103.76 98.19 2.26 57




NCC Satellite Simultaneous Nadir Overpasses (SNOs) Prediction Service
